Current Version              Previous Version:    01  02  03  04  05  06  07  08  09  10  11  12  13  14  15  16  17  18  19  20  21  22  23  24  25  26  27  28  29  30  
   31  32  33  34  35  36  37  38  39  40  41  42  43  44  45  46  47  48  49  50  51  52  53  54  55  56  57  58  59  60  

[Printable]
248
ASUS44 KEWX 141902
RWRTX
SOUTH TEXAS REGIONAL WEATHER ROUNDUP
NATIONAL WEATHER SERVICE AUSTIN/SAN ANTONIO TX
200 PM CDT SUN SEP 14 2014

NOTE: "FAIR" INDICATED FEW OR NO CLOUDS BELOW 12,000 FEET WITH NO
SIGNIFICANT WEATHER AND/OR OBSTRUCTIONS TO VISIBILITY.

* - THESE STATIONS ARE NOT NWS OR FAA STATIONS...AND ARE NOT SUBJECT
    TO NWS AND FAA QUALITY CONTROL.

TXZ171-172-183>190-142000-
TEXAS HILL COUNTRY AND EDWARDS PLATEAU

CITY           SKY/WX    TMP DP  RH WIND       PRES   REMARKS
JUNCTION       PTSUNNY   77  62  59 CALM      30.21F
*LLANO         MOSUNNY   79  63  57 CALM      30.24F
BURNET         CLOUDY    76  63  64 CALM      30.23F
*HORSESHOE BAY CLOUDY    74  62  64 CALM      30.21F
*KERRVILLE     CLOUDY    75  66  74 S3        30.22F
*FREDERICKSBRG CLOUDY    71  63  77 S3        30.23F
*ROCKSPRINGS   PTSUNNY   75  63  64 CALM      30.25F
*BOERNE STAGE  CLOUDY    73  63  68 CALM      30.21F
*CASTROVILLE   MOSUNNY   81  63  53 E5        30.18F
HONDO          PTSUNNY   82  64  54 MISG      30.18F
*UVALDE        PTSUNNY   78  66  66 CALM      30.18F
DEL RIO        LGT RAIN  70  64  81 CALM      30.19F
LAUGHLIN AFB   DRIZZLE   70  66  88 CALM      30.19F
CARRIZO SPRGS  CLOUDY    72  64  78 E3        30.16F
$$

TXZ173-191>194-202-209-217>225-228-142000-
CENTRAL AND SOUTH CENTRAL TEXAS

CITY           SKY/WX    TMP DP  RH WIND       PRES   REMARKS
GEORGETOWN     CLOUDY    73  63  68 N7        30.20F
AUSTIN/BERGSTM CLOUDY    71  64  78 N8        30.20F
AUSTIN/MABRY   CLOUDY    71  64  78 CALM      30.21F
*AUSTIN/EXEC   CLOUDY    68  64  88 CALM      30.21S HAZE
*LAGO VISTA    CLOUDY    72  64  75 CALM      30.22F
SAN MARCOS     CLOUDY    73  63  68 NE9       30.21
NEW BRAUNFELS  CLOUDY    76  64  66 E9        30.18F
RANDOLPH AFB   CLOUDY    77  64  63 NE8       30.18F
PT SAN ANTONIO MOSUNNY   80  65  60 NE7       30.16F
SAN ANTONIO    CLOUDY    79  65  62 NE9       30.18F
STINSON FIELD  CLOUDY    80  65  59 NE9       30.16F
*PLEASANTON    PTSUNNY   80  65  60 N6        30.16F
*LA GRANGE     CLOUDY    75  67  77 CALM      30.16F
*GIDDINGS      CLOUDY    71  64  78 N5        30.23F
*GONZALES      CLOUDY    73  67  79 NE5       30.18S
$$

TXZ163>164-176>182-195>201-210>213-226-227-235-142000-
SOUTHEAST TEXAS

CITY           SKY/WX    TMP DP  RH WIND       PRES   REMARKS
COLLEGE STN    CLOUDY    74  64  71 VRB5      30.18F
*BRYAN         CLOUDY    73  65  76 N5        30.17F
*CALDWELL      CLOUDY    72  66  83 N6        30.22F
*CROCKETT      MOSUNNY   79  68  69 N6        30.20F
*BRENHAM       PTSUNNY   75  66  74 N5        30.18F
HUNTSVILLE     CLOUDY    77  64  64 N6        30.17F
CONROE         CLOUDY    76  65  68 N7        30.16F
HOUSTON BUSH   CLOUDY    77  66  68 N9        30.14F
HOUSTON HOBBY  CLOUDY    75  67  76 N7        30.13F
*HOUSTON SW AP CLOUDY    75  68  80 N7        30.14F
PEARLAND       CLOUDY    76  67  73 NE8       30.14F
HOUSTON HOOKS  CLOUDY    76  66  71 N7        30.15F
ELLINGTON FLD  CLOUDY    75  66  73 N8        30.14
SUGAR LAND     CLOUDY    77  67  71 NE8       30.14F
*HOUSTON EXEC  CLOUDY    73  73 100 N7        30.16F
*CLEVELAND MUN CLOUDY    75  68  78 N3        30.15F
*WHARTON       CLOUDY    75  66  75 NE5       30.15F
$$

TXZ214>216-236>238-142000-
THE UPPER TEXAS COAST

CITY           SKY/WX    TMP DP  RH WIND       PRES   REMARKS
*ORANGE        CLOUDY    75  68  77 NE7       30.13F
PORT ARTHUR    CLOUDY    77  67  71 N10       30.11F
GALVESTON      CLOUDY    76  69  79 N12       30.13F
ANGLETON       CLOUDY    75  67  76 NE9       30.13F
*BAY CITY      CLOUDY    76  71  84 NE6       30.14S
PALACIOS       CLOUDY    77  67  71 NE9       30.13
$$

TXZ229>234-239>247-142000-
TEXAS COASTAL BEND AND RIO GRANDE PLAINS

CITY           SKY/WX    TMP DP  RH WIND       PRES   REMARKS
VICTORIA       CLOUDY    80  67  64 N9        30.14F
*BEEVILLE      CLOUDY    79  68  69 NE10      30.14F
ROCKPORT       PTSUNNY   80  68  66 N15G21    30.13F
*PORT ARANSAS  PTSUNNY   77  70  78 N17       30.11F
*PORT LAVACA   CLOUDY    75  67  76 N12       30.13F
*INGLESIDE     PTSUNNY   79  68  69 NE16      30.12F
CORPUS CHRISTI CLOUDY    79  70  74 NE17      30.11F
CORPUS NAS     CLOUDY    81  72  74 NE15      30.10F
*ROBSTOWN      CLOUDY    81  71  72 NE10      30.12F
ALICE          CLOUDY    80  70  71 NE10      30.11F
KINGSVILLE NAS CLOUDY    80  73  79 NE12      30.11F
COTULLA        PTSUNNY   82  66  58 VRB6      30.15F
*FAITH RANCH   CLOUDY    68  66  94 NE7       30.18F
LAREDO         CLOUDY    72  69  90 NE7       30.18F
$$

TXZ248>255-142000-
DEEP SOUTH TEXAS

CITY           SKY/WX    TMP DP  RH WIND       PRES   REMARKS
BROWNSVILLE    PTSUNNY   84  77  79 N5        30.05F HX  94
PORT ISABEL    PTSUNNY   88  75  65 NE16      30.05F HX  97
*SOUTH PADRE   PTSUNNY   86  77  74 NE12      30.06F HX  97
HARLINGEN      MOSUNNY   87  75  67 N12       30.06F HX  96
*HEBBRONVILLE  CLOUDY    73  69  89 N9        30.16F FOG
MCALLEN        CLOUDY    78  73  84 NW7       30.10F HAZE
*WESLACO       CLOUDY    81  73  77 N8        30.08F HAZE
FALFURRIAS     CLOUDY    65  59  79 N8        30.11F
EDINBURG       CLOUDY    81  73  76 N12       30.10F
*ZAPATA        CLOUDY    70  70  99 CALM      30.14F FOG
$$

TXZ213>215-236>238-242>244-246-247-251-254-255-142000-
CMAN STATIONS

STATION/POSITION TIME  TEMP    WIND        PRES    WAVE
                       AIR SEA DIR/SP/G            HT/PER
                 (UTC) (F)     (DEG/KT/KT) (MB)    (FT/S)
SABINE PASS      1800   74 82   10/  9/ 15 1020.0
SEA RIM ST PARK  1800   73      30/  8/  9 1020.7
NORTH JETTY/GLS  1800   74 82   50/  8/ 10   N/A
EAGLE POINT      1800   72 79   50/  9/ 12 1020.5
MORGANS POINT    1800   73      10/  6/  9 1020.3
PORT O`CONNOR    1800          360/ 11/ 14   N/A
PORT ARANSAS     1800   75 83   10/ 16/ 18 1020.6
MALAQUITE BEACH  1800   76 81  360/ 17/ 18 1019.0
BAFFIN BAY       1800   76 77   20/ 20/ 23 1019.2
PORT ISABEL      1800   84 83   40/ 12/ 17 1018.2
$$

GMZ080-GMZ150>470-142000-
OFFSHORE BUOY REPORTS

STATION/POSITION TIME  TEMP    WIND        PRES    WAVE
                       AIR SEA DIR/SP/G            HT/PER
                 (UTC) (F)     (DEG/KT/KT) (MB)    (FT/S)
20 E GALVESTON   1900   73 84   30/ 10/ 12 1019.6    3/ 5
90 E PT ARANSAS  1900   80 85   20/ 16/ 17 1018.6    5/ 6
35 NE PT MANSFLD 1800   82 84   50/ 17/ 19 1018.1    7/ 7
200 E PT ISABEL  1800   85 86   40/ 10/ 12 1016.5    3/ 6
$$